Weather History for Joplin, MO

Change the Weather History Date:

Monday, January 20, 2014

  Actual Average Record
Temperature  
Mean Temperature 44 °F 35 °F  
Max Temperature 58 °F 45 °F 77 °F (1986)
Min Temperature 30 °F 25 °F -12 °F (1985)
Degree Days  
Heating Degree Days 21 30  
Month to date heating degree days 654 600  
Since 1 July heating degree days 2524 2217  
Cooling Degree Days 0 0  
Month to date cooling degree days 0 0  
Year to date cooling degree days 0 0  
Moisture  
Dew Point 25 °F    
Average Humidity 51    
Maximum Humidity 72    
Minimum Humidity 30    
Precipitation  
Precipitation 0.00 in 0.07 in 1.09 in (1973)
Month to date precipitation 0.57 1.33  
Year to date precipitation 0.57 1.33  
Sea Level Pressure  
Sea Level Pressure 30.00 in    
Wind  
Wind Speed 10 mph (NNW)    
Max Wind Speed 26 mph    
Max Gust Speed 36 mph    
Visibility 10 miles    
Events      
T = Trace of Precipitation, MM = Missing Value Source: NWS Daily Summary

Daily Weather History Graph

Daily Weather History Graph

Search for Another Location

Airport:

Trip Planner

Search our weather history database for the weather conditions in past years. The results will help you decide how hot, cold, wet, or windy it might be!

Date:

Astronomy

Jan. 20, 2014 Rise Set
Actual Time 7:28 AM CST 5:29 PM CST
Civil Twilight 7:00 AM CST 5:57 PM CST
Nautical Twilight 6:28 AM CST 6:29 PM CST
Astronomical Twilight 5:57 AM CST 7:00 PM CST
Moon 9:58 PM CST (1/20) 9:35 AM CST (1/20)
Length of Visible Light 10h 57m
Length of Day
10h 01m
Waning Gibbous, 82% of the Moon is Illuminated
Jan 20
Waning Gibbous
Jan 23
Last Quarter
Jan 30
New
Feb 6
First Quarter
Feb 14
Full

Hourly Weather History & Observations

Time (CST) Temp. Windchill Dew Point Humidity Pressure Visibility Wind Dir Wind Speed Gust Speed Precip Events Conditions
12:53 AM 46.9 °F - 25.0 °F 42% 29.91 in 10.0 mi SW 8.1 mph - N/A   Clear
1:53 AM 43.0 °F 39.5 °F 24.1 °F 47% 29.90 in 10.0 mi SSW 5.8 mph - N/A   Clear
2:53 AM 42.1 °F 36.6 °F 25.0 °F 51% 29.89 in 10.0 mi SSW 9.2 mph - N/A   Clear
3:53 AM 36.0 °F 28.5 °F 24.1 °F 62% 29.88 in 10.0 mi South 10.4 mph - N/A   Clear
4:53 AM 37.0 °F 31.6 °F 24.1 °F 59% 29.88 in 10.0 mi South 6.9 mph - N/A   Clear
5:53 AM 39.9 °F 36.7 °F 24.1 °F 53% 29.88 in 10.0 mi South 4.6 mph - N/A   Clear
6:53 AM 36.0 °F 33.3 °F 24.1 °F 62% 29.89 in 10.0 mi SSE 3.5 mph - N/A   Clear
7:53 AM 32.0 °F 28.7 °F 24.1 °F 73% 29.91 in 10.0 mi Variable 3.5 mph - N/A   Clear
8:53 AM 41.0 °F 38.0 °F 26.1 °F 55% 29.92 in 10.0 mi ENE 4.6 mph - N/A   Clear
9:53 AM 46.9 °F - 26.1 °F 44% 29.94 in 10.0 mi NE 5.8 mph - N/A   Clear
10:53 AM 51.1 °F - 27.0 °F 39% 29.96 in 10.0 mi North 5.8 mph - N/A   Clear
11:53 AM 53.1 °F - 28.0 °F 38% 29.95 in 10.0 mi North 11.5 mph - N/A   Clear
12:53 PM 55.0 °F - 28.9 °F 37% 29.95 in 10.0 mi North 15.0 mph - N/A   Clear
1:53 PM 57.0 °F - 28.0 °F 33% 29.94 in 10.0 mi North 12.7 mph - N/A   Clear
2:53 PM 57.0 °F - 26.1 °F 30% 29.95 in 10.0 mi North 10.4 mph - N/A   Clear
3:53 PM 55.0 °F - 25.0 °F 31% 29.99 in 10.0 mi North 13.8 mph - N/A   Clear
4:53 PM 53.1 °F - 26.1 °F 35% 30.04 in 10.0 mi NNW 12.7 mph - N/A   Clear
5:53 PM 46.9 °F - 26.1 °F 44% 30.08 in 10.0 mi NNW 9.2 mph - N/A   Clear
6:53 PM 46.0 °F 39.0 °F 24.1 °F 42% 30.14 in 10.0 mi NNW 17.3 mph - N/A   Clear
7:53 PM 44.1 °F 36.5 °F 24.1 °F 45% 30.16 in 10.0 mi NNW 17.3 mph 21.9 mph N/A   Clear
8:53 PM 39.0 °F 33.4 °F 21.9 °F 50% 30.15 in 10.0 mi NW 8.1 mph - N/A   Clear
9:53 PM 41.0 °F 33.1 °F 21.0 °F 45% 30.17 in 10.0 mi NW 15.0 mph - N/A   Clear
10:53 PM 37.9 °F 29.2 °F 21.0 °F 51% 30.20 in 10.0 mi NNW 15.0 mph 29.9 mph N/A   Clear
11:53 PM 32.0 °F 20.5 °F 15.1 °F 50% 30.24 in 10.0 mi NNW 18.4 mph 27.6 mph N/A   Clear